Location: Esp�n
(42.4593°N, 0.2047°W)
Time: 23:39:25
(UTC+00:00)

Meteor 1-21 Rocket - Pass Details

Date: 07 June 2020
Orbit: 834 x 906 km, 81.2° (Epoch: 05 July)

Event Time Altitude Azimuth Distance (km) Brightness Sun altitude
Exits shadow 00:34:29 61° 191° (S) 982 4.2 -24.3°
Maximum altitude 00:35:35 89° 279° (W) 874 4.1 -24.2°
Drops below altitude 10° 00:41:24 10° 10° (N) 2,547 7.8 -24.1°
Sets 00:43:52 0° 10° (N) 3,501 8.9 -24.0°
